Terug naar catalogus

SL-14 DEB

ActiefPO
NORAD 19138·DEBRIS·🇷🇺 Russia

Gelanceerd Oct 26, 1978 vanaf Plesetsk Cosmodrome

Loading…

Volgende Passages (komende 24 uur)

TLE

VersSource: Space-Track

Epoch: Sep 14, 2026, 21:55 UTC

1 19138U 78100L   26257.91370755  .00000134  00000-0  10159-2 0  9993
2 19138  82.3076 313.4205 0162448 328.2470 150.8108 12.30619512718839

Volg SL-14 DEB in realtime met AllMySat

Download on the App Store